Lambertville, MI

3:11 AM EST on January 20, 2018 (GMT -0500)
Lambertville

Weather History for KDUH - March, 2014

Change the Weather History Date:

Friday, March 28, 2014

  Actual Average (KTOL) Record (KTOL)
Temperature  
Mean Temperature 45 °F -  
Max Temperature 51 °F 52 °F 81 °F (1910)
Min Temperature 39 °F 31 °F 11 °F (1934)
Degree Days  
Heating Degree Days 20    
Moisture  
Dew Point 37 °F    
Average Humidity 71    
Maximum Humidity 81    
Minimum Humidity 61    
Precipitation  
Precipitation 0.00 in - - ()
Sea Level Pressure  
Sea Level Pressure 29.85 in    
Wind  
Wind Speed 14 mph (WSW)    
Max Wind Speed 22 mph    
Max Gust Speed 34 mph    
Visibility 10 miles    
Events Rain    
Averages and records for this station are not official NWS values.
T = Trace of Precipitation, MM = Missing Value Source: NWS Daily Summary

Daily Weather History Graph

Daily Weather History Graph

Search for Another Location

Airport or City:

Trip Planner

Search our weather history database for the weather conditions in past years. The results will help you decide how hot, cold, wet, or windy it might be!

Date:

Astronomy

Mar. 28, 2014 Rise Set
Actual Time 7:24 AM EDT 7:55 PM EDT
Civil Twilight 6:56 AM EDT 8:23 PM EDT
Nautical Twilight 6:23 AM EDT 8:56 PM EDT
Astronomical Twilight 5:49 AM EDT 9:30 PM EDT
Moon 5:56 AM EDT (3/28) 5:49 PM EDT (3/28)
Length of Visible Light 13h 27m
Length of Day
12h 31m
Waning Crescent, 6% of the Moon is Illuminated
Mar 28
Waning Crescent
Mar 30
New
Apr 7
First Quarter
Apr 15
Full
Apr 22
Last Quarter

Hourly Weather History & Observations

Time (EDT) Temp. Windchill Dew Point Humidity Pressure Visibility Wind Dir Wind Speed Gust Speed Precip Events Conditions
12:15 AM 44.6 °F 37.8 °F 37.4 °F 76% 29.69 in 10.0 mi South 15.0 mph 21.9 mph N/A   Overcast
12:35 AM 46.4 °F 40.7 °F 37.4 °F 71% 29.67 in 10.0 mi South 12.7 mph 20.7 mph N/A   Overcast
12:55 AM 46.4 °F 41.1 °F 37.4 °F 71% 29.67 in 10.0 mi South 11.5 mph 19.6 mph N/A   Overcast
1:15 AM 46.4 °F 41.1 °F 37.4 °F 71% 29.67 in 10.0 mi South 11.5 mph 23.0 mph N/A   Overcast
1:35 AM 46.4 °F 40.7 °F 37.4 °F 71% 29.67 in 10.0 mi South 12.7 mph 20.7 mph N/A   Overcast
1:55 AM 46.4 °F 41.1 °F 35.6 °F 66% 29.66 in 10.0 mi South 11.5 mph 19.6 mph N/A   Overcast
2:15 AM 48.2 °F - 35.6 °F 62% 29.66 in 10.0 mi SSW 12.7 mph 19.6 mph N/A   Overcast
2:35 AM 48.2 °F - 35.6 °F 62% 29.65 in 10.0 mi SSW 15.0 mph 25.3 mph N/A   Overcast
2:55 AM 48.2 °F - 35.6 °F 62% 29.64 in 10.0 mi SSW 11.5 mph 23.0 mph N/A   Scattered Clouds
3:15 AM 50.0 °F - 37.4 °F 62% 29.63 in 10.0 mi SSW 18.4 mph 31.1 mph N/A   Clear
3:35 AM 50.0 °F - 37.4 °F 62% 29.62 in 10.0 mi SSW 20.7 mph 34.5 mph N/A   Scattered Clouds
3:55 AM 50.0 °F - 41.0 °F 71% 29.62 in 10.0 mi SSW 20.7 mph 28.8 mph N/A   Scattered Clouds
4:15 AM 50.0 °F - 41.0 °F 71% 29.62 in 10.0 mi SSW 19.6 mph 29.9 mph N/A   Mostly Cloudy
4:35 AM 50.0 °F - 41.0 °F 71% 29.62 in 10.0 mi SSW 17.3 mph 32.2 mph N/A   Scattered Clouds
4:55 AM 50.0 °F - 41.0 °F 71% 29.61 in 10.0 mi SSW 18.4 mph 29.9 mph N/A   Scattered Clouds
5:15 AM 50.0 °F - 42.8 °F 76% 29.61 in 10.0 mi SSW 16.1 mph 25.3 mph N/A   Scattered Clouds
5:35 AM 50.0 °F - 42.8 °F 76% 29.62 in 10.0 mi SSW 17.3 mph 28.8 mph N/A   Scattered Clouds
5:55 AM 50.0 °F - 42.8 °F 76% 29.61 in 10.0 mi SSW 18.4 mph 25.3 mph N/A   Mostly Cloudy
6:15 AM 51.8 °F - 42.8 °F 71% 29.61 in 10.0 mi SSW 18.4 mph 26.5 mph N/A   Overcast
6:35 AM 51.8 °F - 42.8 °F 71% 29.62 in 10.0 mi SSW 15.0 mph 26.5 mph N/A   Overcast
6:55 AM 51.8 °F - 42.8 °F 71% 29.62 in 10.0 mi SSW 15.0 mph 25.3 mph N/A   Overcast
7:15 AM 51.8 °F - 42.8 °F 71% 29.62 in 10.0 mi SSW 15.0 mph 25.3 mph N/A   Overcast
7:35 AM 51.8 °F - 42.8 °F 71% 29.62 in 10.0 mi SSW 12.7 mph 23.0 mph N/A   Overcast
7:55 AM 51.8 °F - 42.8 °F 71% 29.63 in 10.0 mi SSW 15.0 mph 21.9 mph N/A   Overcast
8:15 AM 51.8 °F - 42.8 °F 71% 29.63 in 10.0 mi SSW 17.3 mph 20.7 mph N/A   Overcast
8:35 AM 51.8 °F - 42.8 °F 71% 29.64 in 10.0 mi SW 9.2 mph 21.9 mph N/A   Overcast
8:55 AM 51.8 °F - 44.6 °F 76% 29.64 in 10.0 mi SW 15.0 mph 25.3 mph N/A   Overcast
9:15 AM 51.8 °F - 44.6 °F 76% 29.64 in 7.0 mi SW 11.5 mph 29.9 mph N/A   Overcast
9:35 AM 51.8 °F - 44.6 °F 76% 29.64 in 10.0 mi SW 13.8 mph 26.5 mph N/A   Overcast
9:55 AM 51.8 °F - 44.6 °F 76% 29.66 in 10.0 mi WSW 21.9 mph 31.1 mph N/A   Overcast
10:15 AM 51.8 °F - 41.0 °F 67% 29.69 in 10.0 mi WSW 17.3 mph 31.1 mph N/A   Overcast
10:35 AM 48.2 °F - 41.0 °F 76% 29.73 in 10.0 mi WSW 15.0 mph 28.8 mph N/A   Overcast
10:55 AM 46.4 °F 39.5 °F 39.2 °F 76% 29.75 in 10.0 mi WSW 17.3 mph 27.6 mph N/A   Overcast
11:15 AM 44.6 °F 38.4 °F 39.2 °F 81% 29.77 in 7.0 mi WSW 12.7 mph 25.3 mph N/A   Overcast
11:35 AM 44.6 °F 37.8 °F 39.2 °F 81% 29.78 in 4.0 mi WSW 15.0 mph 29.9 mph N/A Rain Light Rain
11:55 AM 44.6 °F 37.2 °F 39.2 °F 81% 29.78 in 10.0 mi WSW 17.3 mph 32.2 mph N/A   Overcast
12:15 PM 46.4 °F 39.0 °F 39.2 °F 76% 29.79 in 10.0 mi WSW 19.6 mph 26.5 mph N/A   Overcast
12:35 PM 46.4 °F 39.5 °F 39.2 °F 76% 29.82 in 10.0 mi West 17.3 mph 31.1 mph N/A   Overcast
12:55 PM 46.4 °F 38.7 °F 39.2 °F 76% 29.83 in 10.0 mi West 20.7 mph 29.9 mph N/A   Overcast
1:15 PM 44.6 °F 37.8 °F 37.4 °F 76% 29.86 in 10.0 mi WNW 15.0 mph 31.1 mph N/A   Overcast
1:35 PM 44.6 °F 37.4 °F 35.6 °F 71% 29.88 in 10.0 mi WNW 16.1 mph 28.8 mph N/A   Overcast
1:55 PM 42.8 °F 35.1 °F 33.8 °F 70% 29.90 in 10.0 mi West 16.1 mph 27.6 mph N/A   Overcast
2:15 PM 42.8 °F 34.8 °F 33.8 °F 70% 29.93 in 10.0 mi West 17.3 mph 23.0 mph N/A   Overcast
2:35 PM 42.8 °F 34.8 °F 33.8 °F 70% 29.96 in 10.0 mi West 17.3 mph 23.0 mph N/A   Overcast
2:55 PM 42.8 °F 35.1 °F 33.8 °F 70% 29.97 in 10.0 mi West 16.1 mph 21.9 mph N/A   Overcast
3:15 PM 42.8 °F 34.8 °F 33.8 °F 70% 29.98 in 10.0 mi West 17.3 mph 25.3 mph N/A   Overcast
3:35 PM 42.8 °F 34.8 °F 33.8 °F 70% 29.99 in 10.0 mi West 17.3 mph 23.0 mph N/A   Overcast
3:55 PM 42.8 °F 35.4 °F 33.8 °F 70% 30.00 in 10.0 mi West 15.0 mph 20.7 mph N/A   Overcast
4:15 PM 42.8 °F 35.1 °F 33.8 °F 70% 30.01 in 10.0 mi NW 16.1 mph 23.0 mph N/A   Overcast
4:35 PM 42.8 °F 36.6 °F 33.8 °F 70% 30.00 in 10.0 mi WNW 11.5 mph 20.7 mph N/A   Overcast
4:55 PM 44.6 °F 38.4 °F 33.8 °F 66% 30.03 in 10.0 mi NW 12.7 mph 20.7 mph N/A   Overcast
5:15 PM 44.6 °F 38.8 °F 33.8 °F 66% 30.05 in 10.0 mi NW 11.5 mph 18.4 mph N/A   Mostly Cloudy
5:35 PM 44.6 °F 39.7 °F 33.8 °F 66% 30.07 in 10.0 mi WNW 9.2 mph - N/A   Overcast
5:55 PM 44.6 °F 39.7 °F 33.8 °F 66% 30.08 in 10.0 mi WNW 9.2 mph - N/A   Overcast
6:15 PM 44.6 °F 42.2 °F 33.8 °F 66% 30.10 in 10.0 mi WNW 4.6 mph - N/A   Overcast
6:35 PM 44.6 °F 40.7 °F 32.0 °F 61% 30.10 in 10.0 mi WNW 6.9 mph - N/A   Overcast
6:55 PM 42.8 °F 38.6 °F 33.8 °F 70% 30.11 in 10.0 mi West 6.9 mph - N/A   Overcast
7:15 PM 42.8 °F 38.0 °F 33.8 °F 70% 30.12 in 10.0 mi NW 8.1 mph - N/A   Overcast
7:35 PM 42.8 °F 39.3 °F 32.0 °F 66% 30.12 in 10.0 mi NNW 5.8 mph - N/A   Overcast
7:55 PM 41.0 °F 39.0 °F 32.0 °F 70% 30.12 in 10.0 mi NNW 3.5 mph - N/A   Overcast
8:15 PM 41.0 °F 38.0 °F 32.0 °F 70% 30.13 in 10.0 mi NW 4.6 mph - N/A   Overcast
8:35 PM 41.0 °F 38.0 °F 32.0 °F 70% 30.14 in 10.0 mi NW 4.6 mph - N/A   Overcast
8:55 PM 41.0 °F 39.0 °F 32.0 °F 70% 30.15 in 10.0 mi NNW 3.5 mph - N/A   Overcast
9:15 PM 41.0 °F 39.0 °F 32.0 °F 70% 30.16 in 10.0 mi NNW 3.5 mph - N/A   Overcast
9:35 PM 41.0 °F - 32.0 °F 70% 30.17 in 10.0 mi Calm Calm - N/A   Overcast
9:55 PM 41.0 °F - 32.0 °F 70% 30.18 in 10.0 mi Calm Calm - N/A   Overcast
10:15 PM 41.0 °F 38.0 °F 32.0 °F 70% 30.18 in 10.0 mi NNW 4.6 mph - N/A   Overcast
10:35 PM 41.0 °F 39.0 °F 32.0 °F 70% 30.17 in 10.0 mi NNW 3.5 mph - N/A   Overcast
10:55 PM 39.2 °F 35.0 °F 32.0 °F 75% 30.16 in 10.0 mi North 5.8 mph - N/A   Overcast
11:15 PM 41.0 °F 38.0 °F 32.0 °F 70% 30.17 in 10.0 mi NNE 4.6 mph - N/A   Overcast
11:35 PM 41.0 °F - 32.0 °F 70% 30.18 in 10.0 mi Calm Calm - N/A   Overcast
11:55 PM 39.2 °F 37.0 °F 32.0 °F 75% 30.18 in 10.0 mi North 3.5 mph - N/A   Overcast